カタログに戻る

STARLINK-37077

運用中通信VLEO
NORAD 68169·PAYLOAD·🇺🇸 United States

打ち上げ Mar 14, 2026 から Vandenberg Space Force Base

Loading…

次のパス (今後24時間)

TLE

最新Source: CelesTrak SupGP

元期: Sep 15, 2026, 03:47 UTC

1 68169C 26050C   26258.15812500 -.00011708  00000+0 -34590-3 0  2588
2 68169  53.1570 102.9545 0001252  83.2836 302.2483 15.34396652    16

AllMySatでSTARLINK-37077をリアルタイム追跡

Download on the App Store